Location: Halvern
(37.6252°N, 122.0525°W)
Time: 02:22:17
(UTC+00:00)

ISS - Visible Passes

Search period start: 14 July 2024 00:00
Search period end: 24 July 2024 00:00
Orbit: 410 x 424 km, 51.6° (Epoch: 13 July)

Date Brightness Start Highest point End Pass type
(mag) Time Alt. Az. Time Alt. Az. Time Alt. Az.
14 Jul -0.4 08:48:41 10° NNW 08:48:56 11° NNW 08:48:56 11° NNW visible
15 Jul -0.5 04:45:13 10° NW 04:46:41 12° NNW 04:48:10 10° N visible
15 Jul -0.4 08:00:50 10° NNW 08:01:35 12° N 08:01:35 12° N visible
16 Jul -0.8 03:55:57 10° WNW 03:58:09 16° NNW 04:00:22 10° NNE visible
16 Jul -0.5 07:13:13 10° N 07:14:08 11° NNE 07:14:24 11° NNE visible
18 Jul -0.6 07:12:10 10° NNW 07:13:09 15° N 07:13:09 15° N visible
19 Jul -0.9 06:24:10 10° N 06:25:56 14° NNE 06:26:08 13° NNE visible
20 Jul -0.7 05:36:29 10° N 05:37:10 10° NNE 05:37:53 10° NNE visible
20 Jul -0.5 07:11:29 10° NW 07:11:59 13° NNW 07:11:59 13° NNW visible
21 Jul -1.3 06:23:11 10° NNW 06:24:58 21° N 06:24:58 21° N visible
22 Jul -1.5 05:34:57 10° NNW 05:37:17 17° NNE 05:37:58 17° NE visible
23 Jul -1.1 04:46:48 10° N 04:48:26 13° NNE 04:50:04 10° NE visible
23 Jul -1.4 06:22:24 10° NW 06:23:50 23° NW 06:23:50 23° NW visible
